Kalamata, Greece

9:46 AM EEST on August 30, 2016 (GMT +0300)
Kalamata Air Base

Weather History for LGKL - January, 2013

Change the Weather History Date:

Wednesday, January 9, 2013

  Actual Average Record
Temperature  
Mean Temperature 42 °F -  
Max Temperature 51 °F 59 °F 65 °F (2016)
Min Temperature 32 °F 42 °F 32 °F (2015)
Degree Days  
Heating Degree Days 23    
Moisture  
Dew Point 22 °F    
Average Humidity 47    
Maximum Humidity 80    
Minimum Humidity 24    
Precipitation  
Precipitation 0.00 in 0.14 in - ()
Sea Level Pressure  
Sea Level Pressure 30.18 in    
Wind  
Wind Speed 4 mph ()    
Max Wind Speed 8 mph    
Max Gust Speed -    
Visibility 6.2 miles    
Events      
Averages and records for this station are not official NWS values.
T = Trace of Precipitation, MM = Missing Value Source: Averaged Metar Reports

Daily Weather History Graph

Daily Weather History Graph

Search for Another Location

Airport or City:

Trip Planner

Search our weather history database for the weather conditions in past years. The results will help you decide how hot, cold, wet, or windy it might be!

Date:

Astronomy

Jan. 09, 2013 Rise Set
Actual Time 7:45 AM EET 5:32 PM EET
Civil Twilight 7:16 AM EET 6:01 PM EET
Nautical Twilight 6:44 AM EET 6:33 PM EET
Astronomical Twilight 6:13 AM EET 7:05 PM EET
Moon 5:04 AM EET (1/9) 3:15 PM EET (1/9)
Length of Visible Light 10h 44m
Length of Day
9h 47m
Waning Crescent, 8% of the Moon is Illuminated
Jan 9
Waning Crescent
Jan 11
New
Jan 19
First Quarter
Jan 27
Full
Feb 3
Last Quarter

Hourly Weather History & Observations

Time (EET) Temp. Windchill Dew Point Humidity Pressure Visibility Wind Dir Wind Speed Gust Speed Precip Events Conditions
1:50 AM 35.6 °F 31.7 °F 24.8 °F 65% 30.15 in - North 4.6 mph - N/A   Clear
4:50 AM 33.8 °F 27.7 °F 24.8 °F 70% 30.15 in - NNW 6.9 mph - N/A   Clear
5:20 AM 35.6 °F 29.9 °F 23.0 °F 60% 30.15 in - NNW 6.9 mph - N/A   Clear
5:50 AM 35.6 °F 29.2 °F 23.0 °F 60% 30.15 in - NNW 8.1 mph - N/A   Clear
6:20 AM 33.8 °F - 23.0 °F 65% 30.18 in - Calm Calm - N/A   Clear
6:50 AM 35.6 °F 29.9 °F 23.0 °F 60% 30.18 in - North 6.9 mph - N/A   Clear
7:20 AM 35.6 °F 31.7 °F 21.2 °F 56% 30.18 in 6.2 mi North 4.6 mph - N/A   Partly Cloudy
7:50 AM 35.6 °F 30.7 °F 21.2 °F 56% 30.21 in 6.2 mi NNW 5.8 mph - N/A   Partly Cloudy
8:20 AM 33.8 °F 29.6 °F 21.2 °F 60% 30.21 in 6.2 mi NW 4.6 mph - N/A   Partly Cloudy
8:50 AM 33.8 °F 29.6 °F 23.0 °F 65% 30.21 in - NW 4.6 mph - N/A   Clear
9:20 AM 39.2 °F 35.9 °F 23.0 °F 52% 30.21 in - North 4.6 mph - N/A   Clear
9:50 AM 41.0 °F 37.1 °F 23.0 °F 49% 30.21 in - NNW 5.8 mph - N/A   Clear
10:20 AM 42.8 °F 38.6 °F 23.0 °F 46% 30.24 in - North 6.9 mph - N/A   Clear
10:50 AM 44.6 °F 40.7 °F 24.8 °F 46% 30.24 in - NNW 6.9 mph - N/A   Clear
11:20 AM 46.4 °F 44.3 °F 24.8 °F 43% 30.21 in - North 4.6 mph - N/A   Clear
11:50 AM 50.0 °F - 26.6 °F 40% 30.21 in - SSW 4.6 mph - N/A   Clear
12:20 PM 50.0 °F - 24.8 °F 37% 30.21 in - SSW 5.8 mph - N/A   Clear
12:50 PM 51.8 °F - 15.8 °F 24% 30.21 in - South 4.6 mph - N/A   Clear
1:20 PM 51.8 °F - 17.6 °F 26% 30.18 in - SSE 4.6 mph - N/A   Clear
1:50 PM 51.8 °F - 19.4 °F 28% 30.18 in - South 4.6 mph - N/A   Clear
2:20 PM 51.8 °F - 17.6 °F 26% 30.18 in - Calm Calm - N/A   Clear
2:50 PM 51.8 °F - 19.4 °F 28% 30.18 in - Calm Calm - N/A   Clear
3:20 PM 51.8 °F - 21.2 °F 30% 30.18 in - Calm Calm - N/A   Clear
3:50 PM 51.8 °F - 19.4 °F 28% 30.15 in - Calm Calm - N/A   Clear
4:20 PM 51.8 °F - 17.6 °F 26% 30.15 in - Calm Calm - N/A   Clear
4:50 PM 50.0 °F - 19.4 °F 30% 30.15 in 6.2 mi NNW 8.1 mph - N/A   Partly Cloudy
5:20 PM 46.4 °F - 19.4 °F 34% 30.15 in 6.2 mi Calm Calm - N/A   Partly Cloudy
5:50 PM 44.6 °F - 19.4 °F 37% 30.15 in 6.2 mi Calm Calm - N/A   Partly Cloudy
6:20 PM 41.0 °F - 21.2 °F 45% 30.18 in 6.2 mi Calm Calm - N/A   Partly Cloudy
6:50 PM 41.0 °F - 23.0 °F 49% 30.18 in - Calm Calm - N/A   Clear
7:20 PM 39.2 °F - 24.8 °F 56% 30.18 in - Calm Calm - N/A   Clear
7:50 PM 37.4 °F 32.8 °F 26.6 °F 65% 30.18 in - NW 5.8 mph - N/A   Clear
10:50 PM 32.0 °F - 26.6 °F 80% 30.18 in - Calm Calm - N/A   Clear